Time,TemperatureF,DewpointF,PressureIn,WindDirection,WindDirectionDegrees,WindSpeedMPH,WindSpeedGustMPH,Humidity,HourlyPrecipIn,Conditions,Clouds,dailyrainin,SoftwareType,DateUTC
2013-08-28 00:05:00,71.1,68.6,29.81,SSE,153,0.0,0.0,92,0.00,,,-99.99,Weather View 32 v60,2013-08-28 04:05:00,
2013-08-28 00:10:00,70.9,68.4,29.81,SSE,153,0.0,0.0,92,0.00,,,-99.99,Weather View 32 v60,2013-08-28 04:10:00,
2013-08-28 00:15:00,70.7,68.3,29.81,SSE,153,0.0,0.0,92,0.00,,,-99.99,Weather View 32 v60,2013-08-28 04:15:00,
2013-08-28 00:20:00,70.7,68.3,29.81,SSE,153,0.0,0.0,92,0.00,,,-99.99,Weather View 32 v60,2013-08-28 04:20:00,
2013-08-28 00:25:00,70.5,68.1,29.81,SSE,153,0.0,0.0,92,0.00,,,-99.99,Weather View 32 v60,2013-08-28 04:25:00,
2013-08-28 00:30:00,70.5,68.1,29.81,SSE,153,0.0,0.0,92,0.00,,,-99.99,Weather View 32 v60,2013-08-28 04:30:00,
2013-08-28 00:35:00,70.3,67.9,29.78,SSE,153,0.0,0.0,92,0.00,,,-99.99,Weather View 32 v60,2013-08-28 04:35:00,
2013-08-28 00:40:00,70.3,67.9,29.78,SSE,153,0.0,0.0,92,0.00,,,-99.99,Weather View 32 v60,2013-08-28 04:40:00,
2013-08-28 00:45:00,70.3,67.9,29.78,SSE,153,0.0,0.0,92,0.00,,,-99.99,Weather View 32 v60,2013-08-28 04:45:00,
2013-08-28 00:50:00,70.2,67.7,29.78,SSE,153,0.0,0.0,92,0.00,,,-99.99,Weather View 32 v60,2013-08-28 04:50:00,
2013-08-28 00:55:00,70.0,67.2,29.78,SSE,153,0.0,0.0,91,0.00,,,-99.99,Weather View 32 v60,2013-08-28 04:55:00,
2013-08-28 01:00:00,70.0,67.2,29.78,SSE,153,0.0,0.0,91,0.00,,,-99.99,Weather View 32 v60,2013-08-28 05:00:00,
2013-08-28 01:05:00,69.8,67.0,29.78,SSE,153,0.0,0.0,91,0.00,,,-99.99,Weather View 32 v60,2013-08-28 05:05:00,
2013-08-28 01:10:00,69.8,67.0,29.78,SSE,153,0.0,0.0,91,0.00,,,-99.99,Weather View 32 v60,2013-08-28 05:10:00,
2013-08-28 01:15:00,69.8,67.0,29.78,SSE,153,0.0,0.0,91,0.00,,,-99.99,Weather View 32 v60,2013-08-28 05:15:00,
2013-08-28 01:25:00,69.8,67.0,29.81,ESE,112,0.0,0.0,91,0.00,,,-99.99,Weather View 32 v60,2013-08-28 05:25:00,
2013-08-28 01:35:00,69.8,67.0,29.81,NE,52,0.0,3.0,91,0.00,,,-99.99,Weather View 32 v60,2013-08-28 05:35:00,
2013-08-28 01:40:00,69.8,67.0,29.81,NE,52,0.0,3.0,91,0.00,,,-99.99,Weather View 32 v60,2013-08-28 05:40:00,
2013-08-28 01:45:00,69.8,67.0,29.81,NE,52,0.0,3.0,91,0.00,,,-99.99,Weather View 32 v60,2013-08-28 05:45:00,
2013-08-28 01:50:00,69.8,67.0,29.81,NE,52,0.0,3.0,91,0.00,,,-99.99,Weather View 32 v60,2013-08-28 05:50:00,
2013-08-28 01:55:00,69.8,67.0,29.78,NE,52,0.0,3.0,91,0.00,,,-99.99,Weather View 32 v60,2013-08-28 05:55:00,
2013-08-28 02:00:00,69.8,67.0,29.78,NE,52,0.0,3.0,91,0.00,,,-99.99,Weather View 32 v60,2013-08-28 06:00:00,
2013-08-28 02:05:00,69.8,67.0,29.78,NE,52,0.0,3.0,91,0.00,,,-99.99,Weather View 32 v60,2013-08-28 06:05:00,
2013-08-28 02:10:00,69.6,67.2,29.78,NE,52,0.0,3.0,92,0.00,,,-99.99,Weather View 32 v60,2013-08-28 06:10:00,
2013-08-28 02:15:00,69.6,67.2,29.78,NE,52,0.0,3.0,92,0.00,,,-99.99,Weather View 32 v60,2013-08-28 06:15:00,
2013-08-28 02:20:00,69.6,67.2,29.78,NE,52,0.0,3.0,92,0.00,,,-99.99,Weather View 32 v60,2013-08-28 06:20:00,
2013-08-28 02:25:00,69.6,67.2,29.78,NE,52,0.0,3.0,92,0.00,,,-99.99,Weather View 32 v60,2013-08-28 06:25:00,
2013-08-28 02:30:00,69.6,67.2,29.78,NE,52,0.0,3.0,92,0.00,,,-99.99,Weather View 32 v60,2013-08-28 06:30:00,
2013-08-28 02:35:00,69.6,67.2,29.78,NE,52,0.0,3.0,92,0.00,,,-99.99,Weather View 32 v60,2013-08-28 06:35:00,
2013-08-28 02:40:00,69.6,67.2,29.78,NE,52,0.0,0.0,92,0.00,,,-99.99,Weather View 32 v60,2013-08-28 06:40:00,
2013-08-28 02:45:00,69.6,67.2,29.78,NE,52,0.0,0.0,92,0.00,,,-99.99,Weather View 32 v60,2013-08-28 06:45:00,
2013-08-28 02:50:00,69.6,67.2,29.78,NE,52,0.0,0.0,92,0.00,,,-99.99,Weather View 32 v60,2013-08-28 06:50:00,
2013-08-28 02:55:00,69.6,67.2,29.78,NE,52,0.0,0.0,92,0.00,,,-99.99,Weather View 32 v60,2013-08-28 06:55:00,
2013-08-28 03:00:00,69.6,67.2,29.78,NE,52,0.0,0.0,92,0.00,,,-99.99,Weather View 32 v60,2013-08-28 07:00:00,
2013-08-28 03:05:00,69.6,67.2,29.78,NE,52,0.0,0.0,92,0.00,,,-99.99,Weather View 32 v60,2013-08-28 07:05:00,
2013-08-28 03:10:00,69.6,67.2,29.78,NE,52,0.0,0.0,92,0.00,,,-99.99,Weather View 32 v60,2013-08-28 07:10:00,
2013-08-28 03:15:00,69.6,67.2,29.78,NE,52,0.0,0.0,92,0.00,,,-99.99,Weather View 32 v60,2013-08-28 07:15:00,
2013-08-28 03:20:00,69.6,67.2,29.78,NE,52,0.0,0.0,92,0.00,,,-99.99,Weather View 32 v60,2013-08-28 07:20:00,
2013-08-28 03:25:00,69.8,67.0,29.78,NE,52,0.0,0.0,91,0.00,,,-99.99,Weather View 32 v60,2013-08-28 07:25:00,
2013-08-28 03:30:00,69.8,67.0,29.78,NE,52,0.0,0.0,91,0.00,,,-99.99,Weather View 32 v60,2013-08-28 07:30:00,
2013-08-28 03:35:00,69.8,67.0,29.78,NE,52,0.0,0.0,91,0.00,,,-99.99,Weather View 32 v60,2013-08-28 07:35:00,
2013-08-28 03:40:00,69.8,67.0,29.78,NE,52,0.0,0.0,91,0.00,,,-99.99,Weather View 32 v60,2013-08-28 07:40:00,
2013-08-28 03:45:00,69.8,67.0,29.78,NE,52,0.0,0.0,91,0.00,,,-99.99,Weather View 32 v60,2013-08-28 07:45:00,
2013-08-28 03:50:00,70.0,67.2,29.81,NE,52,0.0,0.0,91,0.00,,,-99.99,Weather View 32 v60,2013-08-28 07:50:00,
2013-08-28 04:00:00,70.2,67.4,29.81,NE,36,0.0,0.0,91,0.00,,,-99.99,Weather View 32 v60,2013-08-28 08:00:00,
2013-08-28 04:05:00,70.2,67.4,29.81,NE,36,0.0,0.0,91,0.00,,,-99.99,Weather View 32 v60,2013-08-28 08:05:00,
2013-08-28 04:10:00,70.2,67.4,29.81,NE,36,0.0,2.0,91,0.00,,,-99.99,Weather View 32 v60,2013-08-28 08:10:00,
2013-08-28 04:15:00,70.3,67.6,29.81,NE,36,0.0,2.0,91,0.00,,,-99.99,Weather View 32 v60,2013-08-28 08:15:00,
2013-08-28 04:20:00,70.3,67.6,29.81,NE,36,0.0,2.0,91,0.00,,,-99.99,Weather View 32 v60,2013-08-28 08:20:00,
2013-08-28 04:25:00,70.3,67.6,29.81,NE,36,0.0,2.0,91,0.00,,,-99.99,Weather View 32 v60,2013-08-28 08:25:00,
2013-08-28 04:30:00,70.5,68.1,29.81,NE,36,0.0,2.0,92,0.00,,,-99.99,Weather View 32 v60,2013-08-28 08:30:00,
2013-08-28 04:35:00,70.5,68.1,29.81,NE,36,0.0,2.0,92,0.00,,,-99.99,Weather View 32 v60,2013-08-28 08:35:00,
2013-08-28 04:40:00,70.7,68.3,29.81,NE,36,0.0,2.0,92,0.00,,,-99.99,Weather View 32 v60,2013-08-28 08:40:00,
2013-08-28 04:45:00,70.7,68.3,29.81,NE,36,0.0,2.0,92,0.00,,,-99.99,Weather View 32 v60,2013-08-28 08:45:00,
2013-08-28 04:50:00,70.7,68.3,29.81,NE,38,5.0,5.0,92,0.00,,,-99.99,Weather View 32 v60,2013-08-28 08:50:00,
2013-08-28 05:00:00,70.9,68.4,29.81,North,357,0.0,5.0,92,0.00,,,-99.99,Weather View 32 v60,2013-08-28 09:00:00,
2013-08-28 05:05:00,70.9,68.4,29.81,North,357,0.0,5.0,92,0.00,,,-99.99,Weather View 32 v60,2013-08-28 09:05:00,
2013-08-28 05:10:00,70.9,68.4,29.81,North,357,0.0,5.0,92,0.00,,,-99.99,Weather View 32 v60,2013-08-28 09:10:00,
2013-08-28 05:15:00,70.9,68.4,29.81,NW,315,0.0,5.0,92,0.00,,,-99.99,Weather View 32 v60,2013-08-28 09:15:00,
2013-08-28 05:20:00,71.1,68.6,29.84,North,353,0.0,5.0,92,0.00,,,-99.99,Weather View 32 v60,2013-08-28 09:20:00,
2013-08-28 05:25:00,71.1,68.6,29.84,North,353,0.0,5.0,92,0.00,,,-99.99,Weather View 32 v60,2013-08-28 09:25:00,
2013-08-28 05:30:00,71.1,68.6,29.84,North,8,0.0,5.0,92,0.00,,,-99.99,Weather View 32 v60,2013-08-28 09:30:00,
2013-08-28 05:35:00,71.1,68.6,29.84,NNW,345,3.0,5.0,92,0.00,,,-99.99,Weather View 32 v60,2013-08-28 09:35:00,
2013-08-28 05:40:00,70.9,68.4,29.84,North,353,2.0,5.0,92,0.00,,,-99.99,Weather View 32 v60,2013-08-28 09:40:00,
2013-08-28 05:45:00,70.9,68.4,29.84,NNE,15,0.0,5.0,92,0.00,,,-99.99,Weather View 32 v60,2013-08-28 09:45:00,
2013-08-28 05:50:00,70.9,68.1,29.84,NNE,15,0.0,5.0,91,0.00,,,-99.99,Weather View 32 v60,2013-08-28 09:50:00,
2013-08-28 05:55:00,70.9,68.1,29.84,North,0,0.0,4.0,91,0.00,,,-99.99,Weather View 32 v60,2013-08-28 09:55:00,
2013-08-28 06:00:00,70.9,68.4,29.84,North,0,0.0,4.0,92,0.00,,,-99.99,Weather View 32 v60,2013-08-28 10:00:00,
2013-08-28 06:05:00,70.9,68.4,29.84,NNE,21,0.0,4.0,92,0.00,,,-99.99,Weather View 32 v60,2013-08-28 10:05:00,
2013-08-28 06:15:00,70.7,67.9,29.84,North,357,0.0,6.0,91,0.00,,,-99.99,Weather View 32 v60,2013-08-28 10:15:00,
2013-08-28 06:20:00,70.7,67.9,29.84,NE,53,0.0,6.0,91,0.00,,,-99.99,Weather View 32 v60,2013-08-28 10:20:00,
2013-08-28 06:25:00,70.7,67.9,29.84,North,7,0.0,6.0,91,0.00,,,-99.99,Weather View 32 v60,2013-08-28 10:25:00,
2013-08-28 06:30:00,70.7,67.9,29.84,NNW,341,0.0,6.0,91,0.00,,,-99.99,Weather View 32 v60,2013-08-28 10:30:00,
2013-08-28 06:35:00,70.5,67.8,29.84,NNE,21,3.0,6.0,91,0.00,,,-99.99,Weather View 32 v60,2013-08-28 10:35:00,
2013-08-28 06:40:00,70.5,67.8,29.84,North,353,0.0,6.0,91,0.00,,,-99.99,Weather View 32 v60,2013-08-28 10:40:00,
2013-08-28 06:50:00,70.5,67.8,29.84,NE,44,0.0,6.0,91,0.00,,,-99.99,Weather View 32 v60,2013-08-28 10:50:00,
2013-08-28 06:55:00,70.5,67.8,29.84,NW,322,4.0,6.0,91,0.00,,,-99.99,Weather View 32 v60,2013-08-28 10:55:00,
2013-08-28 07:00:00,70.5,67.8,29.84,NE,43,0.0,6.0,91,0.00,,,-99.99,Weather View 32 v60,2013-08-28 11:00:00,
2013-08-28 07:05:00,70.3,67.6,29.87,NNW,328,2.0,6.0,91,0.00,,,-99.99,Weather View 32 v60,2013-08-28 11:05:00,
2013-08-28 07:10:00,70.3,67.6,29.87,NNE,22,0.0,6.0,91,0.00,,,-99.99,Weather View 32 v60,2013-08-28 11:10:00,
2013-08-28 07:15:00,70.3,67.6,29.87,North,5,3.0,5.0,91,0.00,,,-99.99,Weather View 32 v60,2013-08-28 11:15:00,
2013-08-28 07:20:00,70.3,67.6,29.87,ENE,57,2.0,5.0,91,0.00,,,-99.99,Weather View 32 v60,2013-08-28 11:20:00,
2013-08-28 07:25:00,70.3,67.9,29.87,NNE,29,0.0,4.0,92,0.00,,,-99.99,Weather View 32 v60,2013-08-28 11:25:00,
2013-08-28 07:30:00,70.3,67.9,29.87,East,79,0.0,4.0,92,0.00,,,-99.99,Weather View 32 v60,2013-08-28 11:30:00,
2013-08-28 07:35:00,70.3,67.9,29.87,North,0,0.0,4.0,92,0.00,,,-99.99,Weather View 32 v60,2013-08-28 11:35:00,
2013-08-28 07:40:00,70.3,67.9,29.87,North,0,0.0,4.0,92,0.00,,,-99.99,Weather View 32 v60,2013-08-28 11:40:00,
2013-08-28 07:50:00,70.3,67.9,29.87,NNE,23,3.0,5.0,92,0.00,,,-99.99,Weather View 32 v60,2013-08-28 11:50:00,
2013-08-28 07:55:00,70.3,67.9,29.87,NE,54,4.0,5.0,92,0.00,,,-99.99,Weather View 32 v60,2013-08-28 11:55:00,
2013-08-28 08:00:00,70.3,67.9,29.87,NW,311,2.0,5.0,92,0.00,,,-99.99,Weather View 32 v60,2013-08-28 12:00:00,
2013-08-28 08:05:00,70.3,67.9,29.87,NNW,330,0.0,5.0,92,0.00,,,-99.99,Weather View 32 v60,2013-08-28 12:05:00,
2013-08-28 08:10:00,70.5,68.1,29.87,North,1,0.0,5.0,92,0.00,,,-99.99,Weather View 32 v60,2013-08-28 12:10:00,
2013-08-28 08:15:00,70.5,68.1,29.87,North,7,0.0,5.0,92,0.00,,,-99.99,Weather View 32 v60,2013-08-28 12:15:00,
2013-08-28 08:20:00,70.5,68.1,29.87,NNE,33,0.0,5.0,92,0.00,,,-99.99,Weather View 32 v60,2013-08-28 12:20:00,
2013-08-28 08:30:00,70.7,68.3,29.87,North,1,3.0,5.0,92,0.00,,,-99.99,Weather View 32 v60,2013-08-28 12:30:00,
2013-08-28 08:35:00,70.7,68.3,29.87,NE,50,4.0,5.0,92,0.00,,,-99.99,Weather View 32 v60,2013-08-28 12:35:00,
2013-08-28 08:40:00,70.7,68.3,29.87,NNE,20,0.0,5.0,92,0.00,,,-99.99,Weather View 32 v60,2013-08-28 12:40:00,
2013-08-28 08:45:00,70.7,68.3,29.87,ENE,66,0.0,5.0,92,0.00,,,-99.99,Weather View 32 v60,2013-08-28 12:45:00,
2013-08-28 08:50:00,70.7,68.3,29.87,ENE,68,4.0,5.0,92,0.00,,,-99.99,Weather View 32 v60,2013-08-28 12:50:00,
2013-08-28 08:55:00,70.9,68.4,29.87,NNW,333,4.0,5.0,92,0.00,,,-99.99,Weather View 32 v60,2013-08-28 12:55:00,
2013-08-28 09:05:00,70.9,68.1,29.87,NNW,330,0.0,5.0,91,0.00,,,-99.99,Weather View 32 v60,2013-08-28 13:05:00,
2013-08-28 09:10:00,70.9,68.1,29.87,ENE,63,0.0,5.0,91,0.00,,,-99.99,Weather View 32 v60,2013-08-28 13:10:00,
2013-08-28 09:15:00,70.9,68.1,29.87,East,101,3.0,5.0,91,0.00,,,-99.99,Weather View 32 v60,2013-08-28 13:15:00,
2013-08-28 09:20:00,70.9,68.1,29.90,East,86,0.0,5.0,91,0.00,,,-99.99,Weather View 32 v60,2013-08-28 13:20:00,
2013-08-28 09:25:00,70.9,68.4,29.90,ENE,77,4.0,5.0,92,0.00,,,-99.99,Weather View 32 v60,2013-08-28 13:25:00,
2013-08-28 09:30:00,71.1,68.6,29.90,NE,37,0.0,5.0,92,0.00,,,-99.99,Weather View 32 v60,2013-08-28 13:30:00,
2013-08-28 09:35:00,71.2,68.8,29.90,NE,37,3.0,5.0,92,0.00,,,-99.99,Weather View 32 v60,2013-08-28 13:35:00,
2013-08-28 09:40:00,71.2,68.8,29.90,ENE,66,0.0,5.0,92,0.00,,,-99.99,Weather View 32 v60,2013-08-28 13:40:00,
2013-08-28 09:45:00,71.4,69.0,29.90,NE,55,0.0,5.0,92,0.00,,,-99.99,Weather View 32 v60,2013-08-28 13:45:00,
2013-08-28 09:50:00,71.4,69.0,29.90,NNE,23,0.0,5.0,92,0.00,,,-99.99,Weather View 32 v60,2013-08-28 13:50:00,
2013-08-28 09:55:00,71.4,69.0,29.90,East,97,0.0,5.0,92,0.00,,,-99.99,Weather View 32 v60,2013-08-28 13:55:00,
2013-08-28 10:00:00,71.4,69.0,29.90,East,96,0.0,5.0,92,0.00,,,-99.99,Weather View 32 v60,2013-08-28 14:00:00,
2013-08-28 10:05:00,71.4,69.0,29.90,NNW,337,0.0,5.0,92,0.00,,,-99.99,Weather View 32 v60,2013-08-28 14:05:00,
2013-08-28 10:10:00,71.4,69.0,29.90,NNE,27,0.0,5.0,92,0.00,,,-99.99,Weather View 32 v60,2013-08-28 14:10:00,
2013-08-28 10:15:00,71.4,69.0,29.90,WNW,292,3.0,5.0,92,0.00,,,-99.99,Weather View 32 v60,2013-08-28 14:15:00,
2013-08-28 10:20:00,71.4,69.0,29.90,NNE,17,0.0,5.0,92,0.00,,,-99.99,Weather View 32 v60,2013-08-28 14:20:00,
2013-08-28 10:25:00,71.4,69.0,29.90,North,6,0.0,5.0,92,0.00,,,-99.99,Weather View 32 v60,2013-08-28 14:25:00,
2013-08-28 10:30:00,71.4,69.0,29.90,NNW,341,3.0,5.0,92,0.00,,,-99.99,Weather View 32 v60,2013-08-28 14:30:00,
2013-08-28 10:35:00,71.4,68.6,29.90,NE,38,0.0,5.0,91,0.00,,,-99.99,Weather View 32 v60,2013-08-28 14:35:00,
2013-08-28 10:40:00,71.4,68.6,29.90,NNE,13,0.0,5.0,91,0.00,,,-99.99,Weather View 32 v60,2013-08-28 14:40:00,
2013-08-28 10:45:00,71.4,68.6,29.90,North,0,0.0,5.0,91,0.00,,,-99.99,Weather View 32 v60,2013-08-28 14:45:00,
2013-08-28 10:50:00,71.4,69.0,29.90,North,5,0.0,5.0,92,0.00,,,-99.99,Weather View 32 v60,2013-08-28 14:50:00,
2013-08-28 10:55:00,71.4,69.0,29.90,NNW,329,2.0,5.0,92,0.00,,,-99.99,Weather View 32 v60,2013-08-28 14:55:00,
2013-08-28 11:00:00,71.6,68.8,29.90,NNW,329,0.0,5.0,91,0.00,,,-99.99,Weather View 32 v60,2013-08-28 15:00:00,
2013-08-28 11:05:00,71.6,68.8,29.90,North,0,0.0,5.0,91,0.00,,,-99.99,Weather View 32 v60,2013-08-28 15:05:00,
2013-08-28 11:10:00,71.6,68.8,29.90,NNW,341,0.0,5.0,91,0.00,,,-99.99,Weather View 32 v60,2013-08-28 15:10:00,
2013-08-28 11:15:00,71.6,68.8,29.90,NW,317,3.0,5.0,91,0.00,,,-99.99,Weather View 32 v60,2013-08-28 15:15:00,
2013-08-28 11:20:00,71.6,68.8,29.90,NNE,16,0.0,5.0,91,0.00,,,-99.99,Weather View 32 v60,2013-08-28 15:20:00,
2013-08-28 11:25:00,71.8,69.0,29.93,NW,320,0.0,5.0,91,0.00,,,-99.99,Weather View 32 v60,2013-08-28 15:25:00,
2013-08-28 11:30:00,71.8,69.0,29.93,NE,49,0.0,5.0,91,0.00,,,-99.99,Weather View 32 v60,2013-08-28 15:30:00,
2013-08-28 11:35:00,71.8,69.0,29.93,North,353,0.0,5.0,91,0.00,,,-99.99,Weather View 32 v60,2013-08-28 15:35:00,
2013-08-28 11:40:00,71.8,69.0,29.93,NE,43,0.0,5.0,91,0.00,,,-99.99,Weather View 32 v60,2013-08-28 15:40:00,
2013-08-28 11:45:00,71.8,69.0,29.93,North,4,4.0,5.0,91,0.00,,,-99.99,Weather View 32 v60,2013-08-28 15:45:00,
2013-08-28 11:50:00,71.8,69.0,29.93,NNW,346,2.0,5.0,91,0.00,,,-99.99,Weather View 32 v60,2013-08-28 15:50:00,
2013-08-28 11:55:00,71.8,69.0,29.93,North,0,2.0,5.0,91,0.00,,,-99.99,Weather View 32 v60,2013-08-28 15:55:00,
2013-08-28 12:00:00,71.8,69.0,29.93,NNE,21,0.0,5.0,91,0.00,,,-99.99,Weather View 32 v60,2013-08-28 16:00:00,
2013-08-28 12:05:00,72.0,69.2,29.93,NW,318,0.0,5.0,91,0.00,,,-99.99,Weather View 32 v60,2013-08-28 16:05:00,
2013-08-28 12:10:00,72.0,69.2,29.93,North,349,0.0,4.0,91,0.00,,,-99.99,Weather View 32 v60,2013-08-28 16:10:00,
2013-08-28 12:15:00,72.0,69.2,29.93,NNW,339,0.0,4.0,91,0.00,,,-99.99,Weather View 32 v60,2013-08-28 16:15:00,
2013-08-28 12:20:00,72.1,69.4,29.93,North,349,0.0,4.0,91,0.00,,,-99.99,Weather View 32 v60,2013-08-28 16:20:00,
2013-08-28 12:25:00,72.1,69.4,29.93,NE,35,2.0,4.0,91,0.00,,,-99.99,Weather View 32 v60,2013-08-28 16:25:00,
2013-08-28 12:30:00,72.3,69.5,29.93,NNE,23,0.0,4.0,91,0.00,,,-99.99,Weather View 32 v60,2013-08-28 16:30:00,
2013-08-28 12:35:00,72.3,69.5,29.93,NE,43,0.0,4.0,91,0.00,,,-99.99,Weather View 32 v60,2013-08-28 16:35:00,
2013-08-28 12:40:00,72.3,69.5,29.93,NNE,31,3.0,4.0,91,0.00,,,-99.99,Weather View 32 v60,2013-08-28 16:40:00,
2013-08-28 12:45:00,72.5,69.7,29.93,North,3,0.0,4.0,91,0.00,,,-99.99,Weather View 32 v60,2013-08-28 16:45:00,
2013-08-28 12:50:00,72.7,69.9,29.93,ESE,115,5.0,5.0,91,0.00,,,-99.99,Weather View 32 v60,2013-08-28 16:50:00,
2013-08-28 12:55:00,72.7,69.9,29.93,ENE,76,0.0,5.0,91,0.00,,,-99.99,Weather View 32 v60,2013-08-28 16:55:00,
2013-08-28 13:00:00,72.9,70.1,29.93,ENE,76,6.0,6.0,91,0.00,,,-99.99,Weather View 32 v60,2013-08-28 17:00:00,
2013-08-28 13:05:00,72.9,70.1,29.93,East,82,6.0,6.0,91,0.00,,,-99.99,Weather View 32 v60,2013-08-28 17:05:00,
2013-08-28 13:10:00,73.0,70.2,29.93,East,91,0.0,6.0,91,0.00,,,-99.99,Weather View 32 v60,2013-08-28 17:10:00,
2013-08-28 13:15:00,73.2,70.4,29.93,North,6,0.0,6.0,91,0.00,,,-99.99,Weather View 32 v60,2013-08-28 17:15:00,
2013-08-28 13:20:00,73.2,70.4,29.93,North,353,0.0,6.0,91,0.00,,,-99.99,Weather View 32 v60,2013-08-28 17:20:00,
2013-08-28 13:25:00,73.4,70.3,29.93,ESE,115,3.0,6.0,90,0.00,,,-99.99,Weather View 32 v60,2013-08-28 17:25:00,
2013-08-28 13:30:00,73.6,70.5,29.93,North,9,3.0,6.0,90,0.00,,,-99.99,Weather View 32 v60,2013-08-28 17:30:00,
2013-08-28 13:35:00,73.8,70.6,29.93,NE,36,0.0,6.0,90,0.00,,,-99.99,Weather View 32 v60,2013-08-28 17:35:00,
2013-08-28 13:40:00,73.9,70.5,29.93,North,353,0.0,6.0,89,0.00,,,-99.99,Weather View 32 v60,2013-08-28 17:40:00,
2013-08-28 13:45:00,74.1,70.3,29.93,East,91,3.0,6.0,88,0.00,,,-99.99,Weather View 32 v60,2013-08-28 17:45:00,
2013-08-28 13:50:00,74.3,70.2,29.93,NE,39,3.0,6.0,87,0.00,,,-99.99,Weather View 32 v60,2013-08-28 17:50:00,
2013-08-28 13:55:00,74.5,70.0,29.93,ENE,58,0.0,6.0,86,0.00,,,-99.99,Weather View 32 v60,2013-08-28 17:55:00,
2013-08-28 14:05:00,74.7,70.2,29.93,NE,55,3.0,6.0,86,0.00,,,-99.99,Weather View 32 v60,2013-08-28 18:05:00,
2013-08-28 14:10:00,74.7,70.2,29.93,NNW,330,3.0,6.0,86,0.00,,,-99.99,Weather View 32 v60,2013-08-28 18:10:00,
2013-08-28 14:15:00,74.7,69.8,29.93,ENE,63,0.0,6.0,85,0.00,,,-99.99,Weather View 32 v60,2013-08-28 18:15:00,
2013-08-28 14:20:00,74.7,69.5,29.93,NNW,346,0.0,6.0,84,0.00,,,-99.99,Weather View 32 v60,2013-08-28 18:20:00,
2013-08-28 14:25:00,74.8,69.0,29.93,East,89,5.0,6.0,82,0.00,,,-99.99,Weather View 32 v60,2013-08-28 18:25:00,
2013-08-28 14:30:00,74.8,68.6,29.93,ESE,106,3.0,6.0,81,0.00,,,-99.99,Weather View 32 v60,2013-08-28 18:30:00,
2013-08-28 14:35:00,75.0,68.0,29.93,North,357,0.0,6.0,79,0.00,,,-99.99,Weather View 32 v60,2013-08-28 18:35:00,
2013-08-28 14:40:00,75.2,67.1,29.93,East,95,6.0,6.0,76,0.00,,,-99.99,Weather View 32 v60,2013-08-28 18:40:00,
2013-08-28 14:45:00,75.4,64.0,29.93,North,0,4.0,6.0,68,0.00,,,-99.99,Weather View 32 v60,2013-08-28 18:45:00,
2013-08-28 14:50:00,75.7,63.5,29.93,North,353,4.0,6.0,66,0.00,,,-99.99,Weather View 32 v60,2013-08-28 18:50:00,
2013-08-28 14:55:00,75.9,63.3,29.93,ENE,62,5.0,7.0,65,0.00,,,-99.99,Weather View 32 v60,2013-08-28 18:55:00,
2013-08-28 15:00:00,76.1,63.0,29.93,ESE,122,3.0,7.0,64,0.00,,,-99.99,Weather View 32 v60,2013-08-28 19:00:00,
2013-08-28 15:05:00,76.1,62.5,29.93,NE,54,0.0,7.0,63,0.00,,,-99.99,Weather View 32 v60,2013-08-28 19:05:00,
2013-08-28 15:10:00,76.1,60.7,29.93,NE,42,4.0,10.0,59,0.00,,,-99.99,Weather View 32 v60,2013-08-28 19:10:00,
2013-08-28 15:15:00,76.3,59.4,29.93,East,101,3.0,10.0,56,0.00,,,-99.99,Weather View 32 v60,2013-08-28 19:15:00,
2013-08-28 15:20:00,76.5,60.5,29.93,North,10,0.0,10.0,58,0.00,,,-99.99,Weather View 32 v60,2013-08-28 19:20:00,
2013-08-28 15:25:00,76.5,60.0,29.93,ENE,69,4.0,10.0,57,0.00,,,-99.99,Weather View 32 v60,2013-08-28 19:25:00,
2013-08-28 15:30:00,76.6,58.7,29.93,NNW,330,2.0,10.0,54,0.00,,,-99.99,Weather View 32 v60,2013-08-28 19:30:00,
2013-08-28 15:35:00,76.8,58.9,29.93,NE,53,3.0,10.0,54,0.00,,,-99.99,Weather View 32 v60,2013-08-28 19:35:00,
2013-08-28 15:40:00,76.8,59.4,29.93,North,353,2.0,10.0,55,0.00,,,-99.99,Weather View 32 v60,2013-08-28 19:40:00,
2013-08-28 15:45:00,76.8,58.3,29.93,NW,305,0.0,10.0,53,0.00,,,-99.99,Weather View 32 v60,2013-08-28 19:45:00,
2013-08-28 15:50:00,77.0,59.5,29.93,NNE,13,4.0,10.0,55,0.00,,,-99.99,Weather View 32 v60,2013-08-28 19:50:00,
2013-08-28 15:55:00,77.2,59.7,29.93,East,98,3.0,10.0,55,0.00,,,-99.99,Weather View 32 v60,2013-08-28 19:55:00,
2013-08-28 16:00:00,77.2,57.0,29.93,ENE,75,3.0,10.0,50,0.00,,,-99.99,Weather View 32 v60,2013-08-28 20:00:00,
2013-08-28 16:05:00,77.4,57.2,29.93,NE,44,3.0,10.0,50,0.00,,,-99.99,Weather View 32 v60,2013-08-28 20:05:00,
2013-08-28 16:15:00,77.4,56.6,29.93,SE,133,3.0,6.0,49,0.00,,,-99.99,Weather View 32 v60,2013-08-28 20:15:00,
2013-08-28 16:20:00,77.4,57.2,29.93,North,0,0.0,6.0,50,0.00,,,-99.99,Weather View 32 v60,2013-08-28 20:20:00,
2013-08-28 16:25:00,77.4,56.1,29.93,ENE,59,6.0,6.0,48,0.00,,,-99.99,Weather View 32 v60,2013-08-28 20:25:00,
2013-08-28 16:30:00,77.5,56.8,29.93,East,85,4.0,6.0,49,0.00,,,-99.99,Weather View 32 v60,2013-08-28 20:30:00,
2013-08-28 16:35:00,77.5,55.1,29.93,ESE,121,3.0,6.0,46,0.00,,,-99.99,Weather View 32 v60,2013-08-28 20:35:00,
2013-08-28 16:40:00,77.7,55.8,29.93,East,85,3.0,6.0,47,0.00,,,-99.99,Weather View 32 v60,2013-08-28 20:40:00,
2013-08-28 16:45:00,77.5,57.4,29.93,North,353,0.0,6.0,50,0.00,,,-99.99,Weather View 32 v60,2013-08-28 20:45:00,
2013-08-28 16:55:00,77.5,57.4,29.93,East,86,4.0,6.0,50,0.00,,,-99.99,Weather View 32 v60,2013-08-28 20:55:00,
2013-08-28 17:00:00,77.5,56.8,29.93,ENE,71,3.0,6.0,49,0.00,,,-99.99,Weather View 32 v60,2013-08-28 21:00:00,
2013-08-28 17:05:00,77.7,55.2,29.93,ESE,103,5.0,6.0,46,0.00,,,-99.99,Weather View 32 v60,2013-08-28 21:05:00,
2013-08-28 17:10:00,77.7,55.8,29.93,ENE,68,4.0,6.0,47,0.00,,,-99.99,Weather View 32 v60,2013-08-28 21:10:00,
2013-08-28 17:15:00,77.7,57.5,29.93,ENE,58,0.0,6.0,50,0.00,,,-99.99,Weather View 32 v60,2013-08-28 21:15:00,
2013-08-28 17:20:00,77.5,57.9,29.93,ESE,122,0.0,6.0,51,0.00,,,-99.99,Weather View 32 v60,2013-08-28 21:20:00,
2013-08-28 17:25:00,77.5,57.9,29.93,ENE,59,4.0,6.0,51,0.00,,,-99.99,Weather View 32 v60,2013-08-28 21:25:00,
2013-08-28 17:35:00,77.5,56.2,29.93,ENE,58,0.0,6.0,48,0.00,,,-99.99,Weather View 32 v60,2013-08-28 21:35:00,
2013-08-28 17:40:00,77.5,56.2,29.93,ENE,64,0.0,6.0,48,0.00,,,-99.99,Weather View 32 v60,2013-08-28 21:40:00,
2013-08-28 17:45:00,77.5,55.7,29.93,ESE,116,0.0,6.0,47,0.00,,,-99.99,Weather View 32 v60,2013-08-28 21:45:00,
2013-08-28 17:50:00,77.5,55.1,29.93,North,353,0.0,6.0,46,0.00,,,-99.99,Weather View 32 v60,2013-08-28 21:50:00,
2013-08-28 17:55:00,77.5,55.1,29.93,East,93,4.0,6.0,46,0.00,,,-99.99,Weather View 32 v60,2013-08-28 21:55:00,
2013-08-28 18:00:00,77.7,55.2,29.93,ESE,121,3.0,5.0,46,0.00,,,-99.99,Weather View 32 v60,2013-08-28 22:00:00,
2013-08-28 18:05:00,77.9,56.0,29.93,East,88,2.0,5.0,47,0.00,,,-99.99,Weather View 32 v60,2013-08-28 22:05:00,
2013-08-28 18:10:00,77.9,56.0,29.93,ENE,74,4.0,5.0,47,0.00,,,-99.99,Weather View 32 v60,2013-08-28 22:10:00,
2013-08-28 18:20:00,78.1,56.7,29.93,ENE,72,0.0,5.0,48,0.00,,,-99.99,Weather View 32 v60,2013-08-28 22:20:00,
2013-08-28 18:25:00,78.3,56.9,29.93,ESE,110,3.0,5.0,48,0.00,,,-99.99,Weather View 32 v60,2013-08-28 22:25:00,
2013-08-28 18:30:00,78.3,57.5,29.93,ESE,111,2.0,5.0,49,0.00,,,-99.99,Weather View 32 v60,2013-08-28 22:30:00,
2013-08-28 18:35:00,78.3,57.5,29.93,SE,126,0.0,5.0,49,0.00,,,-99.99,Weather View 32 v60,2013-08-28 22:35:00,
2013-08-28 18:40:00,78.4,57.6,29.93,SSE,147,0.0,5.0,49,0.00,,,-99.99,Weather View 32 v60,2013-08-28 22:40:00,
2013-08-28 18:45:00,78.4,57.6,29.93,ESE,120,0.0,5.0,49,0.00,,,-99.99,Weather View 32 v60,2013-08-28 22:45:00,
2013-08-28 18:50:00,78.4,58.7,29.96,East,91,0.0,5.0,51,0.00,,,-99.99,Weather View 32 v60,2013-08-28 22:50:00,
2013-08-28 18:58:00,78.4,58.2,29.96,ENE,78,2.0,5.0,50,0.00,,,-99.99,Weather View 32 v60,2013-08-28 22:58:00,
2013-08-28 19:05:00,78.4,58.2,29.93,East,97,3.0,5.0,50,0.00,,,-99.99,Weather View 32 v60,2013-08-28 23:05:00,
2013-08-28 19:10:00,78.3,58.0,29.93,East,82,3.0,5.0,50,0.00,,,-99.99,Weather View 32 v60,2013-08-28 23:10:00,
2013-08-28 19:15:00,78.3,58.0,29.93,SE,140,2.0,5.0,50,0.00,,,-99.99,Weather View 32 v60,2013-08-28 23:15:00,
2013-08-28 19:20:00,78.3,58.0,29.93,ESE,110,4.0,5.0,50,0.00,,,-99.99,Weather View 32 v60,2013-08-28 23:20:00,
2013-08-28 19:25:00,78.1,58.4,29.96,East,79,3.0,4.0,51,0.00,,,-99.99,Weather View 32 v60,2013-08-28 23:25:00,
2013-08-28 19:30:00,78.1,58.4,29.96,SE,136,3.0,4.0,51,0.00,,,-99.99,Weather View 32 v60,2013-08-28 23:30:00,
2013-08-28 19:35:00,77.9,57.7,29.96,SE,124,3.0,5.0,50,0.00,,,-99.99,Weather View 32 v60,2013-08-28 23:35:00,
2013-08-28 19:45:00,77.5,57.4,29.96,ESE,104,4.0,7.0,50,0.00,,,-99.99,Weather View 32 v60,2013-08-28 23:45:00,
2013-08-28 19:50:00,77.4,57.2,29.96,ESE,103,4.0,7.0,50,0.00,,,-99.99,Weather View 32 v60,2013-08-28 23:50:00,
2013-08-28 19:55:00,77.2,57.6,29.96,East,100,4.0,7.0,51,0.00,,,-99.99,Weather View 32 v60,2013-08-28 23:55:00,
2013-08-28 20:00:00,76.8,57.8,29.96,East,98,3.0,7.0,52,0.00,,,-99.99,Weather View 32 v60,2013-08-29 00:00:00,
2013-08-28 20:05:00,76.6,57.6,29.96,SE,141,3.0,7.0,52,0.00,,,-99.99,Weather View 32 v60,2013-08-29 00:05:00,
2013-08-28 20:10:00,76.5,57.5,29.96,ESE,123,2.0,7.0,52,0.00,,,-99.99,Weather View 32 v60,2013-08-29 00:10:00,
2013-08-28 20:15:00,76.1,57.7,29.96,NE,44,2.0,7.0,53,0.00,,,-99.99,Weather View 32 v60,2013-08-29 00:15:00,
2013-08-28 20:20:00,75.9,57.5,29.96,ESE,103,2.0,7.0,53,0.00,,,-99.99,Weather View 32 v60,2013-08-29 00:20:00,
2013-08-28 20:30:00,75.6,57.7,29.96,ESE,117,0.0,7.0,54,0.00,,,-99.99,Weather View 32 v60,2013-08-29 00:30:00,
2013-08-28 20:35:00,75.2,57.4,29.96,ESE,104,0.0,7.0,54,0.00,,,-99.99,Weather View 32 v60,2013-08-29 00:35:00,
2013-08-28 20:40:00,75.0,57.7,29.96,ESE,104,0.0,7.0,55,0.00,,,-99.99,Weather View 32 v60,2013-08-29 00:40:00,
2013-08-28 20:45:00,74.8,57.5,29.96,ESE,104,0.0,7.0,55,0.00,,,-99.99,Weather View 32 v60,2013-08-29 00:45:00,
2013-08-28 20:50:00,74.7,57.9,29.96,ESE,104,0.0,5.0,56,0.00,,,-99.99,Weather View 32 v60,2013-08-29 00:50:00,
2013-08-28 20:55:00,74.5,58.2,29.99,ESE,104,0.0,5.0,57,0.00,,,-99.99,Weather View 32 v60,2013-08-29 00:55:00,
2013-08-28 21:00:00,74.3,58.0,29.99,ESE,104,0.0,5.0,57,0.00,,,-99.99,Weather View 32 v60,2013-08-29 01:00:00,
2013-08-28 21:05:00,73.9,58.2,29.99,ESE,104,0.0,5.0,58,0.00,,,-99.99,Weather View 32 v60,2013-08-29 01:05:00,
2013-08-28 21:15:00,73.6,57.8,29.99,ESE,104,0.0,4.0,58,0.00,,,-99.99,Weather View 32 v60,2013-08-29 01:15:00,
2013-08-28 21:20:00,73.4,58.2,29.99,ESE,104,0.0,4.0,59,0.00,,,-99.99,Weather View 32 v60,2013-08-29 01:20:00,
2013-08-28 21:25:00,73.2,58.5,29.99,ESE,104,0.0,4.0,60,0.00,,,-99.99,Weather View 32 v60,2013-08-29 01:25:00,
2013-08-28 21:30:00,73.0,58.7,29.99,ESE,104,0.0,0.0,61,0.00,,,-99.99,Weather View 32 v60,2013-08-29 01:30:00,
2013-08-28 21:35:00,72.9,58.6,29.99,ESE,104,0.0,0.0,61,0.00,,,-99.99,Weather View 32 v60,2013-08-29 01:35:00,
2013-08-28 21:40:00,72.7,58.9,29.99,ESE,104,0.0,0.0,62,0.00,,,-99.99,Weather View 32 v60,2013-08-29 01:40:00,
2013-08-28 21:50:00,72.3,59.0,29.99,ESE,104,0.0,0.0,63,0.00,,,-99.99,Weather View 32 v60,2013-08-29 01:50:00,
2013-08-28 21:55:00,72.1,58.8,29.99,ESE,104,0.0,0.0,63,0.00,,,-99.99,Weather View 32 v60,2013-08-29 01:55:00,
2013-08-28 22:00:00,72.0,58.6,29.99,ESE,104,0.0,0.0,63,0.00,,,-99.99,Weather View 32 v60,2013-08-29 02:00:00,
2013-08-28 22:05:00,71.8,58.5,29.99,ESE,104,0.0,0.0,63,0.00,,,-99.99,Weather View 32 v60,2013-08-29 02:05:00,
2013-08-28 22:10:00,71.6,58.3,29.99,ESE,104,0.0,0.0,63,0.00,,,-99.99,Weather View 32 v60,2013-08-29 02:10:00,
2013-08-28 22:15:00,71.4,58.6,29.99,ESE,104,0.0,0.0,64,0.00,,,-99.99,Weather View 32 v60,2013-08-29 02:15:00,
2013-08-28 22:20:00,71.2,58.4,29.99,ESE,104,0.0,0.0,64,0.00,,,-99.99,Weather View 32 v60,2013-08-29 02:20:00,
2013-08-28 22:25:00,71.1,58.7,29.99,ESE,104,0.0,0.0,65,0.00,,,-99.99,Weather View 32 v60,2013-08-29 02:25:00,
2013-08-28 22:35:00,70.7,58.3,29.99,ESE,104,0.0,0.0,65,0.00,,,-99.99,Weather View 32 v60,2013-08-29 02:35:00,
2013-08-28 22:40:00,70.5,58.1,29.99,ESE,104,0.0,0.0,65,0.00,,,-99.99,Weather View 32 v60,2013-08-29 02:40:00,
2013-08-28 22:50:00,70.2,57.8,30.02,ESE,104,0.0,0.0,65,0.00,,,-99.99,Weather View 32 v60,2013-08-29 02:50:00,
2013-08-28 22:55:00,70.0,57.6,30.02,ESE,104,0.0,0.0,65,0.00,,,-99.99,Weather View 32 v60,2013-08-29 02:55:00,
2013-08-28 23:00:00,69.8,57.9,30.02,ESE,104,0.0,0.0,66,0.00,,,-99.99,Weather View 32 v60,2013-08-29 03:00:00,
2013-08-28 23:10:00,69.4,58.0,30.02,ESE,104,0.0,0.0,67,0.00,,,-99.99,Weather View 32 v60,2013-08-29 03:10:00,
2013-08-28 23:15:00,69.3,57.8,30.02,ESE,104,0.0,0.0,67,0.00,,,-99.99,Weather View 32 v60,2013-08-29 03:15:00,
2013-08-28 23:25:00,68.9,57.9,30.02,ESE,104,0.0,0.0,68,0.00,,,-99.99,Weather View 32 v60,2013-08-29 03:25:00,
2013-08-28 23:30:00,68.9,57.9,30.02,ESE,104,0.0,0.0,68,0.00,,,-99.99,Weather View 32 v60,2013-08-29 03:30:00,
2013-08-28 23:35:00,68.7,58.1,30.02,ESE,104,0.0,0.0,69,0.00,,,-99.99,Weather View 32 v60,2013-08-29 03:35:00,
2013-08-28 23:40:00,68.5,57.9,30.02,ESE,104,0.0,0.0,69,0.00,,,-99.99,Weather View 32 v60,2013-08-29 03:40:00,
2013-08-28 23:45:00,68.4,58.2,30.02,ESE,104,0.0,0.0,70,0.00,,,-99.99,Weather View 32 v60,2013-08-29 03:45:00,
2013-08-28 23:50:00,68.4,58.2,30.02,ESE,104,0.0,0.0,70,0.00,,,-99.99,Weather View 32 v60,2013-08-29 03:50:00,